STARLINK-32843 (62814 NORAD) Tracking and Keplerian Element Data

This shows tracking and keplerian element data for the satellite.

Feedback or suggestion? Click here.




ElementValue
Catalog62814
NameSTARLINK-32843
Epoch Orbit292
Epoch Day35.25001157
Epoch Year2025
RAAN11.5036
Inclination53.1471
Eccentricity0.0001013
Argument of Perigee75.7081
Mean Anonmoly99.8416
Mean Motion15.85827845
Decay Rate-0.01010776
L11 62814U 25018J 25035.25001157 -.01010776 00000+0 -45388-2 0 9996
L22 62814 53.1471 11.5036 0001013 75.7081 99.8416 15.85827845 2926



Live tracking and technical data element details for STARLINK-32843 (NORAD 62814). STARLINK-32843 can be tracked NOW for your location showing map with azimuth and elevation plus other details from your city location.







IsCatalogInMostPopularTable: catalog: 62814, numindb: 2
Update: records affected: 1



GetName: 62814 STARLINK-32843

Hit Count: updated at: Sun, 09 Feb 2025 15:36:26 GMT